Regional Weather Roundup
Issued by NWS Lake Charles, LA

Home | Current Version | Previous Version | Text Only | Print | Product List | Glossary On
Versions: 1 2 3 4 5 6 7 8 9 10 11 12 13 14 15 16 17 18 19 20 21 22 23 24 25 26 27 28 29 30 31 32 33 34 35 36 37 38 39 40 41 42 43 44 45 46 47 48 49 50
000
ASUS44 KLCH 302210
RWRLCH
REGIONAL WEATHER ROUNDUP
NATIONAL WEATHER SERVICE LAKE CHARLES LA
500 PM CDT SAT JUL 30 2016

Note: "fair" indicates few or no clouds below 12,000 feet with no
significant weather and/or obstructions to visibility.


ACROSS SOUTHEAST TEXAS

CITY           SKY/WX    TMP DP  RH WIND       PRES   REMARKS
BEAUMONT       PTSUNNY   86  80  82 S7        29.97F HX 101
BEAUMONT CITY  FAIR      91  74  57 S8        29.97F HX 101
ORANGE         PTCLDY    85  74  69 CALM      29.99F
JASPER           N/A     95  65  37 S6        29.98F
$$

ACROSS CENTRAL LOUISIANA

CITY           SKY/WX    TMP DP  RH WIND       PRES   REMARKS
LEESVILLE      MOSUNNY   93  72  49 SW9       29.96F HX 101
FULLERTON      FAIR      91  73  55 CALM      29.95F
ALEXANDRIA INT SUNNY     93  72  50 VRB5      29.95F HX 101
ESLER FIELD    SUNNY     94  74  52 SW5       29.97S HX 104
DERIDDER       FAIR      94  68  41 S7        29.99F
OAKDALE        PTCLDY    92  72  51 CALM      29.97F HX 100
OPELOUSAS      MOCLDY    93  73  51 E3        29.97F HX 101
$$

ACROSS SOUTHWEST AND SOUTH CENTRAL LOUISIANA

CITY           SKY/WX    TMP DP  RH WIND       PRES   REMARKS
SULPHUR        CLEAR     93  74  53 S7        29.98F HX 103
LAKE CHARLES   MOSUNNY   92  73  53 S7        29.97F HX 100
CHENNAULT INT  NOT AVBL
CAMERON PHI    CLEAR     88  73  62 SW9       29.98F
DEQUINCY       FAIR      92  74  56 S12       29.97F HX 101
JENNINGS       FAIR      88  79  74 S7        29.98F HX 102
LAFAYETTE      CLOUDY    83  74  74 S7        29.99F
NEW IBERIA     CLOUDY    83  76  79 S6        30.00F
ABBEVILLE      FAIR      82  78  87 CALM      30.00F
PATTERSON      MOSUNNY   90  77  65 W10       30.00F HX 103
SALT POINT       N/A     90  75  61 VRB5      29.99S HX 100
$$

SELECTED SITES ACROSS THE REGION

CITY           SKY/WX    TMP DP  RH WIND       PRES   REMARKS
HOUSTON BUSH   PTSUNNY   95  70  44 S8        29.96S THUNDER HX 101
HOUSTON HOBBY  CLOUDY    86  75  69 SE9       29.97R THUNDER
GALVESTON      SUNNY     90  78  68 S14       30.00S HX 104
COLLEGE STAT   MOSUNNY   96  69  41 S12       29.95F HX 102
CONROE         SUNNY     94  67  41 SE8       29.97F
HUNTSVILLE     SUNNY     95  67  39 S7        29.97F
LUFKIN         PTSUNNY   95  69  42 S9        29.95F HX 100
SHREVEPORT     TSTM      79  76  90 N10       29.97S FOG
MONROE         SUNNY     92  78  63 SE5       29.96F HX 107
NATCHEZ MS     MOSUNNY   91  73  55 S3        29.99S HX 100
BATON ROUGE    SUNNY     95  69  42 VRB5      29.97F HX 100
N.O. INTL ARPT PTSUNNY   91  76  61 S8        29.99F HX 103
SLIDELL        LGT RAIN  79  77  94 CALM      29.99F
$$

MARINE REPORTS

STATION/POSITION TIME  SKY/WX   TEMP    WIND        PRES    VSBY
                                AIR SEA DIR/SP/G
                 (UTC)          (F)     (DEG/KT/KT) (MB)    (MI)
BUOY 30 S HIGH I 2150            86 90  190/ 10/ 12 1015.6
WVE H/P(F/S)=  2/ 7

SEA RIM ST PARK  2200            87     200/  3/  5 1016.0F
PORT ARTHUR      2100               88  240/  8/ 14 1016.0F
SABINE PASS N    2100            89 90  220/  6/ 10 1017.5F
TEXAS POINT      NOT AVBL
CALCASIEU PASS   2100            87 89  220/ 10/ 11 1015.3F
LK CHARLES BEACH 2100            92 88              1015.7F
MARSH ISLAND     NOT AVBL
FRESH WATER LOCK 2100            87 89  210/  5/ 11 1016.8F
AMERADA PASS     2100            89 90  190/  3/  6 1016.4F
$$



USA.gov is the U.S. government's official web portal to all federal, state and local government web resources and services.